DW3400 Weather Reports


time (UTC)temp
C
wind
direction
speed
KPH
gust
KPH
rain 1hr
cm
rain 24hr
cm
rain mn
cm
humidity
%
barometer
mb
20260505111503 14 304 1.6 14.5 0.00 0.00 0.00 60 1014.2
20260505110503 13 346 3.2 12.9 0.00 0.00 0.00 63 1014.3
20260505102003 12 302 8.0 12.9 0.00 0.00 0.00 66 1014.4
20260505101503 12 296 6.4 12.9 0.00 0.00 0.00 66 1014.4
20260505101003 12 311 4.8 16.1 0.00 0.00 0.00 69 1014.4
20260505100003 12 305 8.0 14.5 0.00 0.00 0.00 71 1014.4
20260505095502 12 296 9.7 19.3 0.00 0.00 0.00 71 1014.4
20260505095003 12 309 6.4 14.5 0.00 0.00 0.00 70 1014.3
20260505094003 12 338 9.7 20.9 0.00 0.00 0.00 73 1014.2
20260505093003 12 302 8.0 12.9 0.00 0.00 0.00 73 1014.3
20260505091503 12 314 6.4 14.5 0.00 0.00 0.00 72 1014.4
20260505091003 12 310 4.8 19.3 0.00 0.00 0.00 71 1014.3
20260505090503 12 290 4.8 8.0 0.00 0.00 0.00 73 1014.4
20260505090003 12 28 1.6 11.3 0.00 0.00 0.00 74 1014.3
20260505085502 11 331 4.8 12.9 0.00 0.00 0.00 73 1014.3
20260505085003 11 356 3.2 8.0 0.00 0.00 0.00 74 1014.4
20260505083003 11 313 9.7 16.1 0.00 0.00 0.00 76 1014.4
20260505081003 11 0 4.8 9.7 0.00 0.00 0.00 77 1014.2
20260505080503 11 340 4.8 14.5 0.00 0.00 0.00 75 1014.4
20260505080003 11 301 8.0 14.5 0.00 0.00 0.00 76 1014.4
20260505074503 10 305 11.3 19.3 0.00 0.00 0.00 77 1014.3
20260505074003 11 304 4.8 16.1 0.00 0.00 0.00 77 1014.4
20260505073503 10 298 8.0 12.9 0.00 0.00 0.00 80 1014.3
20260505072503 10 299 9.7 16.1 0.00 0.00 0.00 81 1014.4
20260505071003 10 300 4.8 8.0 0.00 0.00 0.00 82 1014.5
20260505070503 10 303 6.4 12.9 0.00 0.00 0.00 82 1014.6
20260505070003 10 299 9.7 19.3 0.00 0.00 0.00 81 1014.5
20260505065502 10 305 4.8 12.9 0.00 0.00 0.00 83 1014.4
20260505063503 10 312 6.4 12.9 0.00 0.00 0.00 85 1014.5
20260505062502 10 299 9.7 14.5 0.00 0.00 0.00 85 1014.5
20260505061503 10 304 8.0 11.3 0.00 0.00 0.00 86 1014.6
20260505055505 9 292 1.6 4.8 0.00 0.00 0.00 89 1014.6
20260505055003 9 307 1.6 4.8 0.00 0.00 0.00 89 1014.6
20260505054003 8 323 1.6 4.8 0.00 0.00 0.00 90 1014.6
20260505053003 8 300 1.6 3.2 0.00 0.00 0.00 91 1014.6
20260505052503 8 295 3.2 4.8 0.00 0.00 0.00 91 1014.7
20260505052003 8 298 1.6 4.8 0.00 0.00 0.00 92 1014.5
20260505051503 8 297 3.2 4.8 0.00 0.00 0.00 92 1014.5
20260505035503 6 290 0.0 0.0 0.00 0.00 0.00 93 1014.5
20260505035004 6 290 0.0 0.0 0.00 0.00 0.00 93 1014.5
20260505034003 6 290 0.0 1.6 0.00 0.00 0.00 93 1014.4
20260505033503 6 290 0.0 1.6 0.00 0.00 0.00 93 1014.4
20260505032003 6 281 0.0 1.6 0.00 0.00 0.00 92 1014.4
20260505031003 6 293 1.6 3.2 0.00 0.00 0.00 93 1014.4
20260505030003 6 299 0.0 1.6 0.00 0.00 0.00 92 1014.4
20260505025502 7 299 0.0 3.2 0.00 0.00 0.00 93 1014.5
20260505024503 7 297 1.6 1.6 0.00 0.00 0.00 92 1014.5
20260505024003 6 297 0.0 0.0 0.00 0.00 0.00 92 1014.6
20260505023503 7 297 0.0 0.0 0.00 0.00 0.00 91 1014.6
20260505023003 7 297 0.0 1.6 0.00 0.00 0.00 91 1014.6
20260505021503 7 290 1.6 3.2 0.00 0.00 0.00 92 1014.7
20260505021003 7 292 1.6 3.2 0.00 0.00 0.00 92 1014.7
20260505020503 7 289 1.6 3.2 0.00 0.00 0.00 92 1014.8
20260505015503 7 289 0.0 0.0 0.00 0.00 0.00 91 1014.8
20260505014504 7 289 0.0 1.6 0.00 0.00 0.00 92 1014.8
20260505014003 7 288 0.0 3.2 0.00 0.00 0.00 92 1014.7
20260505013506 7 305 1.6 4.8 0.00 0.00 0.00 92 1014.7
20260505013003 7 307 1.6 4.8 0.00 0.00 0.00 92 1014.7
20260505011003 7 311 1.6 3.2 0.00 0.00 0.00 91 1014.7
20260505004503 7 309 0.0 0.0 0.00 0.00 0.00 91 1014.8
20260505003003 7 309 0.0 0.0 0.00 0.00 0.00 90 1014.9
20260505002503 7 309 0.0 0.0 0.00 0.00 0.00 90 1014.8
20260505002003 7 309 0.0 1.6 0.00 0.00 0.00 90 1014.8
20260505001004 7 309 0.0 0.0 0.00 0.00 0.00 89 1014.9
20260504235003 7 309 0.0 1.6 0.00 0.00 0.00 88 1014.7
20260504234503 7 309 0.0 1.6 0.00 0.00 0.00 88 1014.7
20260504232502 8 308 3.2 4.8 0.00 0.00 0.00 88 1014.8
20260504232003 8 312 1.6 4.8 0.00 0.00 0.00 88 1014.8
20260504231503 8 302 3.2 4.8 0.00 0.00 0.00 88 1014.8
20260504230503 7 303 1.6 3.2 0.00 0.00 0.00 88 1015.0
20260504225503 7 283 0.0 1.6 0.00 0.00 0.00 88 1015.1
20260504223503 7 257 0.0 1.6 0.00 0.00 0.00 89 1015.2
20260504222503 8 257 0.0 1.6 0.00 0.00 0.00 89 1015.3
20260504222003 8 190 0.0 0.0 0.00 0.00 0.00 89 1015.2
20260504221504 8 190 0.0 0.0 0.00 0.00 0.00 90 1015.3
20260504220003 7 190 0.0 0.0 0.00 0.00 0.00 89 1015.3
20260504215003 8 190 0.0 0.0 0.00 0.00 0.00 88 1015.4
20260504214504 8 190 0.0 0.0 0.00 0.00 0.00 88 1015.3
20260504214004 8 190 0.0 0.0 0.00 0.00 0.00 89 1015.4
20260504213503 8 190 0.0 0.0 0.00 0.00 0.00 89 1015.4
20260504213003 8 190 0.0 0.0 0.00 0.00 0.00 89 1015.3
20260504212503 8 190 0.0 0.0 0.00 0.00 0.00 88 1015.4
20260504210503 8 190 0.0 0.0 0.00 0.00 0.00 87 1015.4
20260504205503 9 190 0.0 3.2 0.00 0.00 0.00 87 1015.5
20260504205003 9 245 0.0 1.6 0.00 0.00 0.00 85 1015.5
20260504203503 10 247 0.0 1.6 0.00 0.00 0.00 84 1015.5
20260504203003 10 252 0.0 0.0 0.00 0.00 0.00 85 1015.4
20260504200503 10 235 0.0 1.6 0.00 0.00 0.00 83 1015.4
20260504200004 10 244 0.0 1.6 0.00 0.00 0.00 83 1015.4
20260504192503 11 222 0.0 4.8 0.00 0.00 0.00 79 1015.2
20260504185003 12 261 3.2 8.0 0.00 0.00 0.00 75 1015.1
20260504184003 13 269 3.2 8.0 0.00 0.00 0.00 74 1015.1
20260504181004 13 267 1.6 8.0 0.00 0.00 0.00 72 1015.0
20260504180503 13 247 3.2 9.7 0.00 0.00 0.00 71 1015.0
20260504180003 14 255 1.6 4.8 0.00 0.00 0.00 71 1015.0
20260504175003 14 231 1.6 8.0 0.00 0.00 0.00 71 1014.9
20260504174503 14 201 1.6 9.7 0.00 0.00 0.00 71 1015.0
20260504174004 14 313 0.0 8.0 0.00 0.00 0.00 71 1015.0
20260504173004 14 247 3.2 9.7 0.00 0.00 0.00 70 1014.9
20260504172003 15 245 3.2 11.3 0.00 0.00 0.00 70 1015.1
20260504170503 15 216 1.6 9.7 0.00 0.00 0.00 69 1015.0
20260504130503 16 224 4.8 14.5 0.00 0.00 0.00 68 1015.3